Wind_Speed
23 22 21 22 22 21 21 21 21 20 20 20 19 18 18 21 22 22 20 18 16 16 16 15 14 12 10 10 11 10 9 12 15 17 16 20 25 23 16 11 13 17 16 13 7 8 9 8 10 9 7 4 3 3 1 2 2 2 2 3 4 4 4 2 3 3 3 5 4 4 3 2 5 4 1 2 1 1 3 3 3 3 4 10 12 14 17 17
24 23 22 21 22 22 21 22 21 20 20 20 20 19 17 19 22 22 21 19 17 16 15 14 14 13 10 9 8 9 9 12 16 19 24 26 24 22 20 15 13 14 14 13 12 11 10 8 10 9 5 3 3 2 1 2 3 2 2 3 4 5 4 2 5 6 5 3 4 4 1 2 3 4 2 1 4 5 4 3 5 4 5 11 12 14 17 17
25 24 23 22 22 21 21 22 22 21 21 20 20 20 18 18 20 22 21 19 18 16 15 14 14 13 11 10 8 8 7 9 11 16 25 28 27 24 21 19 15 13 11 12 13 13 12 11 10 8 5 3 4 3 2 2 3 3 3 4 4 5 5 2 4 5 6 5 3 4 3 3 1 3 2 2 3 5 6 5 6 6 6 10 10 13 17 16
26 25 24 23 22 22 21 22 22 22 21 21 21 20 20 18 18 20 21 20 18 16 15 14 14 13 13 11 9 7 2 6 7 10 20 24 28 29 24 21 18 15 12 11 13 14 14 14 11 8 6 5 4 4 4 3 2 3 4 5 6 3 4 2 6 6 6 5 4 4 3 2 0 4 2 2 3 4 4 3 5 8 10 11 11 13 16 15
28 28 25 24 23 22 22 21 22 22 22 21 21 21 20 19 18 19 20 21 20 17 15 15 15 13 14 12 10 7 3 3 2 2 10 16 24 30 27 24 22 19 15 12 12 14 15 13 11 7 6 5 5 5 5 6 4 3 5 7 8 5 5 4 7 5 4 2 3 2 1 2 2 2 2 3 4 3 2 4 4 0 3 10 13 13 14 13
29 29 26 25 24 23 22 22 22 22 22 21 21 21 21 20 19 18 19 21 21 18 15 15 15 13 14 13 11 10 7 3 1 8 2 5 14 25 28 26 24 22 16 12 12 13 12 10 9 6 4 5 7 7 6 7 6 4 6 7 7 7 8 1 6 2 2 1 3 1 2 2 2 3 4 6 6 3 4 6 7 7 8 11 15 12 10 10
30 29 28 26 25 24 23 23 22 22 23 22 21 20 21 21 19 18 18 21 22 20 16 15 15 14 14 13 12 12 9 7 4 5 5 4 2 13 23 24 22 20 16 14 14 11 9 9 10 6 5 7 7 9 8 8 8 8 7 6 8 8 10 2 5 1 0 1 2 2 3 2 4 4 2 4 6 5 1 6 7 6 8 9 10 9 8 9
31 30 29 27 27 26 25 24 23 23 23 23 22 20 21 21 20 19 18 20 22 21 17 15 15 15 15 14 10 9 10 11 14 14 8 7 6 4 13 18 18 17 16 17 16 12 10 10 10 7 7 7 7 9 9 9 9 10 8 5 9 7 5 1 4 3 2 2 0 0 2 4 6 2 1 4 4 5 3 5 6 6 6 5 6 8 7 8
31 30 30 29 28 27 26 25 24 24 24 24 23 20 21 20 20 19 18 19 21 23 19 16 16 15 16 13 7 8 9 11 19 21 14 8 4 2 8 14 17 17 17 19 18 16 11 8 10 8 7 7 8 8 8 9 6 8 8 6 10 9 3 2 3 5 4 4 3 3 5 7 5 1 1 7 7 7 5 5 6 5 5 5 5 7 7 7
30 30 30 30 30 28 27 27 26 25 25 25 23 20 21 20 20 20 18 18 20 23 20 17 17 16 18 13 7 10 4 5 15 19 17 11 7 6 10 13 16 18 19 18 19 18 12 10 9 5 7 6 7 8 9 10 6 5 6 7 11 12 8 5 5 6 5 4 4 5 6 8 4 3 3 7 8 9 8 6 7 6 6 6 6 7 8 8
30 30 30 30 31 29 28 28 27 26 25 26 24 21 21 21 20 20 19 18 19 23 21 19 18 18 19 11 9 9 2 6 11 10 13 13 11 13 14 16 17 18 18 17 18 18 16 16 9 2 4 5 5 7 9 9 8 7 6 7 9 11 11 5 5 6 5 4 6 6 6 8 4 4 5 5 5 5 7 8 8 7 7 7 7 7 7 9
31 30 30 30 30 29 29 28 27 27 26 26 24 22 21 21 21 20 19 18 18 22 22 21 20 19 16 9 12 10 2 6 10 9 11 12 13 14 13 16 20 18 15 15 18 20 21 18 9 5 3 3 4 4 6 7 7 8 7 7 8 10 10 6 5 7 5 4 6 4 5 7 7 8 8 8 8 5 6 7 7 8 7 6 7 6 6 9
31 31 31 30 30 30 30 29 28 27 27 26 25 23 21 22 22 20 20 19 18 21 23 23 21 19 13 6 12 15 7 7 10 11 13 14 15 15 15 17 21 20 14 11 12 16 19 14 6 5 3 2 4 2 5 4 2 4 5 5 6 7 8 8 8 8 8 6 6 5 3 6 8 12 13 12 13 10 8 8 7 7 7 7 7 6 6 8
31 31 32 31 30 30 30 30 29 28 27 26 25 24 23 21 22 21 20 20 19 21 23 23 22 18 12 7 8 14 14 10 11 14 17 17 18 17 18 21 20 19 13 6 7 10 12 9 3 1 0 2 2 1 4 3 3 4 5 5 5 6 6 7 10 10 9 7 9 6 5 6 6 8 10 10 11 10 8 8 7 6 6 6 6 7 7 8
30 31 32 31 31 30 30 30 29 28 28 26 25 25 24 22 22 22 21 21 20 21 24 24 24 15 6 10 9 11 17 13 14 18 16 17 19 15 16 22 16 10 12 6 5 8 3 8 4 1 0 2 2 1 2 2 2 4 6 6 7 6 5 6 8 12 10 6 10 7 4 5 8 9 10 8 9 11 9 8 7 7 7 7 6 7 7 8
29 30 32 32 32 31 31 30 29 29 28 26 24 23 24 23 22 22 21 22 19 22 23 19 24 18 3 5 6 10 17 16 17 17 15 18 18 14 16 19 12 5 8 8 3 6 3 6 2 1 1 1 3 4 2 2 4 6 7 7 7 7 5 4 4 10 11 5 8 9 5 3 6 6 5 4 6 10 8 6 7 7 7 7 6 5 5 5
28 29 30 30 31 31 31 31 29 28 27 26 24 22 24 22 22 22 21 21 20 23 23 14 20 19 4 3 5 8 16 18 20 19 17 19 16 16 17 12 9 10 8 5 3 4 2 3 1 1 0 1 3 4 4 6 7 6 7 7 7 7 5 4 2 6 10 7 8 11 9 7 7 5 1 2 3 5 5 6 6 6 5 6 5 4 5 4
27 28 29 29 30 30 31 32 30 28 27 26 23 21 21 21 22 20 19 20 17 20 21 12 15 14 5 8 8 8 17 20 21 22 20 18 17 17 16 9 9 13 9 4 2 1 2 1 1 1 2 3 4 7 9 10 9 8 8 6 6 7 7 7 4 5 10 10 9 10 10 9 10 10 7 4 2 4 6 7 6 6 6 6 6 5 6 6
27 28 29 28 29 30 31 32 32 29 27 26 23 20 17 16 16 16 18 18 12 10 9 8 12 7 3 11 16 11 16 22 21 22 23 21 19 16 15 13 10 10 7 2 3 4 3 2 1 3 6 9 9 12 12 7 7 8 5 3 5 8 8 7 5 6 11 10 9 10 10 8 10 11 10 9 8 8 8 7 6 7 7 6 6 6 6 7
26 27 29 28 29 30 30 33 33 30 28 26 22 16 10 9 7 9 13 12 11 10 5 7 14 10 5 4 14 15 13 20 18 19 25 24 22 18 12 11 8 5 6 5 5 4 4 4 5 8 8 12 13 14 13 8 6 3 2 2 6 8 7 7 7 8 11 8 8 10 10 9 10 11 9 8 9 9 8 8 7 7 7 7 7 7 7 7
26 27 27 28 29 29 31 33 33 31 29 28 24 13 5 10 10 4 8 9 12 19 13 7 8 15 14 4 11 18 8 10 11 15 26 25 23 17 7 8 8 4 6 7 6 3 4 7 10 12 10 10 12 12 13 13 10 3 2 2 5 7 7 7 6 4 5 4 4 6 8 9 9 10 10 8 8 8 7 7 8 8 7 6 7 8 8 7
26 26 26 28 27 29 32 32 33 31 29 28 24 12 7 16 15 1 5 7 11 20 18 10 5 10 18 9 12 22 8 6 12 13 24 24 17 12 8 9 8 6 8 8 6 4 5 7 8 8 6 8 11 12 12 14 11 5 3 3 4 5 6 7 3 5 4 1 2 5 7 7 7 8 10 10 8 7 8 9 9 9 8 7 7 8 8 7
27 26 26 26 25 28 31 32 33 29 28 28 22 17 15 20 21 10 3 3 7 15 15 15 11 8 14 12 14 23 11 10 14 14 23 23 12 10 11 11 10 9 10 10 8 7 5 4 3 1 1 7 10 13 13 11 10 6 5 4 4 5 5 4 3 5 4 2 2 4 6 6 6 7 10 11 9 7 8 10 11 10 10 10 9 8 8 8
27 26 25 25 25 26 28 31 30 26 30 30 24 27 25 17 19 16 6 1 5 10 15 18 14 10 12 9 13 20 11 10 12 14 25 22 11 10 12 12 13 11 9 11 11 8 5 3 4 2 3 4 7 11 12 10 7 6 6 7 6 4 5 4 1 3 4 2 2 3 5 6 5 8 11 11 11 11 12 12 13 13 11 10 10 8 8 8
28 27 25 26 25 26 29 27 25 28 30 28 27 32 29 16 14 13 4 2 4 4 13 17 10 10 12 7 12 14 8 10 11 14 23 20 13 11 9 8 9 10 12 14 10 6 6 5 6 4 2 1 4 8 9 8 7 6 6 8 7 5 6 6 3 3 1 2 4 3 3 4 4 8 11 10 11 12 12 14 15 14 11 9 8 8 8 8
29 27 26 26 25 28 26 16 21 30 21 20 30 31 26 22 14 9 4 3 5 3 8 13 7 11 15 9 9 6 4 9 6 13 23 23 18 10 8 8 4 9 13 11 6 2 5 7 8 7 2 2 1 3 5 6 5 4 3 3 6 8 8 7 3 2 2 2 2 5 4 5 2 5 8 7 9 10 9 10 13 12 10 8 7 7 8 8
29 28 27 27 27 29 20 9 17 23 12 19 33 27 24 24 14 8 4 5 6 5 8 9 7 15 18 12 15 9 4 7 4 8 19 23 18 5 6 11 5 8 10 6 4 4 8 12 10 11 8 2 2 1 2 4 5 2 2 4 3 3 4 5 5 3 2 1 3 2 3 4 7 5 6 8 10 13 12 9 8 8 8 7 6 7 8 9
29 29 28 27 29 31 23 12 15 19 19 22 26 24 24 24 15 8 4 7 4 6 7 6 5 14 15 13 19 10 4 13 9 8 15 23 18 1 4 13 10 10 11 9 7 5 11 16 15 15 11 7 8 5 2 3 4 2 2 5 7 6 5 3 3 3 2 2 3 4 3 4 9 4 6 9 12 14 14 11 9 7 7 7 7 8 9 9
30 29 29 29 28 31 30 20 17 23 26 18 17 24 24 21 14 4 4 7 2 3 5 8 7 10 11 12 17 11 4 9 8 6 10 15 11 2 4 10 13 14 12 12 9 2 6 14 17 16 11 9 11 8 4 4 3 3 1 6 7 6 6 6 4 3 4 2 6 7 5 5 10 4 5 7 9 10 11 8 8 8 7 8 8 9 9 7
32 31 31 29 27 30 30 24 23 24 22 19 19 24 23 16 9 4 8 7 2 1 3 7 9 11 16 15 12 13 10 5 5 9 9 8 4 1 3 1 5 9 8 10 7 2 4 10 12 11 8 9 9 5 3 6 7 4 4 6 6 6 5 4 3 4 3 4 8 10 9 7 9 4 5 5 5 7 6 4 6 8 8 8 8 8 7 6
34 32 32 32 30 30 22 19 26 24 21 25 26 25 18 7 4 7 8 2 2 4 5 8 13 16 21 18 9 12 15 7 7 10 8 8 5 2 3 1 2 4 5 6 4 4 6 8 7 5 6 8 9 5 3 4 7 5 5 4 4 4 3 3 2 2 2 7 7 9 11 9 9 5 2 3 4 4 5 6 6 6 7 6 7 6 6 6
36 34 34 34 31 29 22 19 28 28 23 29 26 18 9 4 5 8 4 2 1 6 7 10 15 18 21 19 11 13 16 9 9 10 9 10 8 6 8 8 7 6 6 7 6 4 5 7 7 5 7 12 11 6 3 3 5 5 6 5 2 1 1 0 1 2 4 6 4 5 9 8 10 11 9 10 9 7 5 5 5 4 3 5 6 5 5 4
38 36 35 34 30 31 30 24 26 27 25 29 21 8 6 6 6 8 7 2 1 4 7 10 15 21 23 18 11 13 15 10 11 12 12 12 10 10 12 12 12 7 3 8 8 5 4 6 9 7 5 10 12 9 6 5 7 8 7 7 5 4 2 2 3 1 2 4 4 4 7 5 5 8 9 12 14 14 10 7 6 5 6 7 6 5 6 4
39 37 36 34 32 32 31 25 26 29 26 23 13 6 9 8 5 11 14 6 2 3 10 12 15 20 22 17 12 14 12 9 14 14 11 12 10 11 12 12 13 6 4 8 6 6 7 5 10 10 6 11 13 12 10 7 8 9 6 5 6 6 4 3 3 1 1 2 4 3 4 3 3 2 5 7 8 10 12 10 8 7 7 7 6 6 5 4
38 38 35 31 30 31 31 28 28 30 24 14 7 8 10 8 6 11 13 6 2 5 12 16 17 17 16 15 16 17 11 7 13 13 9 11 10 12 13 11 13 9 7 8 4 6 10 5 9 11 8 16 16 10 9 8 5 5 4 4 5 5 5 1 1 3 2 2 3 3 2 2 3 8 13 11 9 7 5 6 7 8 8 7 5 6 5 5
36 35 31 28 29 32 34 31 29 30 21 9 6 8 8 7 6 6 7 7 4 6 14 16 14 13 10 9 14 17 10 6 13 10 6 10 11 13 13 9 12 13 10 10 5 6 8 5 12 12 8 16 16 10 11 8 5 4 5 5 3 2 5 3 1 3 2 3 4 3 4 5 5 11 12 9 9 7 5 5 5 7 7 6 6 6 6 5
33 28 23 23 28 32 35 32 30 28 14 6 8 7 6 6 4 2 3 6 6 9 14 11 9 10 8 6 11 17 12 7 11 9 4 9 9 11 12 6 9 14 9 6 4 3 4 4 10 13 11 13 11 10 11 5 3 4 5 6 3 4 2 3 2 3 3 6 5 5 8 5 3 6 6 5 7 7 7 7 6 7 6 6 7 6 5 6
28 21 14 19 28 31 33 32 30 22 7 4 10 9 5 6 4 1 3 5 9 11 10 7 6 7 7 7 9 15 15 10 10 8 5 6 6 10 15 7 7 12 7 4 3 2 3 3 5 11 12 11 9 9 7 2 3 2 4 8 6 1 2 4 3 3 5 6 4 4 7 6 6 7 7 8 9 7 7 7 7 8 8 7 7 6 6 5
20 12 6 18 29 30 33 32 24 14 5 6 12 10 5 5 4 2 4 5 8 11 10 6 5 5 6 10 10 13 16 14 13 10 6 6 4 10 17 10 9 13 9 6 6 2 3 4 3 7 9 10 8 7 7 5 3 3 3 6 5 2 2 5 4 2 3 5 5 4 5 4 7 8 8 10 10 8 9 8 8 9 7 5 4 5 5 3
12 6 3 19 31 30 34 29 12 5 6 8 10 7 4 3 5 5 6 8 6 7 7 5 6 8 8 11 12 12 13 14 15 11 7 8 7 10 16 12 11 14 10 7 6 3 3 3 3 5 7 9 7 7 10 11 7 5 5 6 6 3 1 1 3 2 2 3 4 5 5 3 4 6 8 9 8 9 9 8 8 5 2 5 6 5 4 5
8 4 3 21 34 31 29 17 4 4 6 8 9 6 4 3 3 6 10 10 7 5 5 5 5 9 11 11 13 12 10 11 13 10 6 9 8 7 12 15 15 16 11 6 5 4 2 2 4 5 6 8 8 7 9 11 10 9 7 9 9 7 4 2 4 3 2 2 2 3 5 5 3 3 4 7 6 6 4 2 2 2 6 7 6 5 4 5
7 4 6 26 39 34 20 5 3 6 6 8 7 4 4 4 4 5 9 10 6 7 5 8 5 5 8 9 10 12 10 9 12 10 6 10 11 7 11 16 18 18 13 8 8 7 3 3 4 4 4 4 2 2 3 6 12 10 6 6 7 6 6 5 4 4 2 2 1 1 2 6 4 2 5 5 5 6 4 4 4 4 5 6 6 5 2 5
6 4 11 33 43 32 13 5 6 6 5 6 5 2 3 5 6 6 6 7 6 5 4 7 9 7 6 6 8 11 10 8 12 12 8 10 10 5 11 18 18 18 13 9 9 6 3 3 5 4 2 2 4 4 6 4 5 8 6 7 7 7 8 5 2 2 3 3 3 2 3 7 5 4 6 7 5 7 5 4 6 4 5 4 4 4 2 5
5 2 7 30 44 29 10 6 10 9 6 5 6 5 2 2 5 8 8 8 7 5 4 4 9 10 7 7 8 10 10 6 9 11 7 8 5 1 9 20 20 16 11 9 10 7 3 5 7 5 3 2 2 1 2 3 3 6 7 9 8 8 8 4 1 2 1 5 7 5 5 7 4 3 6 6 4 5 5 3 4 2 4 3 3 4 3 3
6 2 2 14 29 20 6 4 8 10 8 7 10 10 5 2 3 4 10 11 7 5 5 3 5 9 9 10 9 9 6 1 5 6 2 4 2 3 6 19 20 14 10 9 10 8 4 4 7 7 7 7 6 6 6 5 4 2 4 7 9 10 11 7 4 3 3 7 8 5 5 7 6 6 8 8 6 7 7 6 5 4 4 4 4 3 1 2
6 2 1 3 7 7 3 0 4 9 9 9 10 10 10 8 1 2 8 11 7 5 3 2 4 7 8 10 9 7 3 3 1 4 2 3 3 3 3 13 15 11 9 10 11 8 3 2 5 7 7 7 6 5 7 9 7 6 8 11 12 13 13 8 4 6 7 7 6 6 6 8 11 13 12 9 6 8 9 8 6 4 4 5 4 3 3 2
4 3 3 2 2 6 3 0 4 7 8 9 7 8 13 12 4 0 4 6 7 6 1 0 5 8 9 11 8 5 4 2 3 6 3 3 4 2 2 5 7 7 6 6 6 5 3 4 9 10 7 5 4 6 10 13 12 14 14 14 13 13 13 10 7 9 8 6 7 9 9 8 13 17 16 10 5 7 9 8 6 5 5 5 6 8 8 7
2 2 3 1 1 7 7 5 8 8 9 10 6 8 14 13 7 5 3 3 8 9 2 1 5 9 11 14 9 6 6 4 4 7 4 3 4 4 5 6 4 4 5 3 1 3 4 5 9 10 8 4 4 8 12 13 12 14 14 14 14 14 14 13 12 12 9 7 8 9 9 11 14 16 16 12 8 8 9 8 8 9 8 6 6 8 10 9
2 2 2 1 1 7 11 12 13 12 12 12 7 8 14 15 13 9 3 1 6 9 6 5 7 9 10 11 9 8 9 7 6 7 6 6 8 7 5 3 2 3 4 3 0 1 2 3 5 5 5 4 3 5 6 8 9 10 12 13 13 13 14 13 12 12 11 11 11 9 9 11 11 12 15 15 11 8 9 11 12 10 7 7 8 8 9 9
2 1 3 2 1 5 9 10 12 11 11 11 10 9 11 15 17 12 5 4 8 8 7 9 12 13 11 11 10 10 12 11 10 9 10 11 10 7 5 4 4 6 5 3 2 1 1 4 5 5 2 3 2 2 2 5 6 5 6 7 7 9 10 9 8 9 10 11 12 11 11 11 10 12 17 17 12 8 11 15 14 9 6 7 8 8 8 8
0 1 3 4 3 6 8 8 9 9 8 9 9 9 12 15 17 14 6 2 5 8 10 12 15 13 11 13 13 12 11 10 10 11 12 12 10 6 5 4 7 9 5 3 3 2 2 2 3 5 3 3 5 7 6 4 5 3 3 3 4 6 8 9 9 10 11 11 10 10 10 10 11 12 13 14 12 11 13 14 12 10 6 5 6 7 7 7
0 2 2 3 3 7 9 8 9 9 8 9 9 10 12 13 13 14 7 1 2 5 8 12 14 11 10 13 13 10 9 8 8 9 7 7 6 5 5 8 12 12 8 6 4 4 5 3 3 5 5 4 6 8 6 4 4 5 6 8 11 11 11 11 10 10 12 12 9 9 10 11 9 6 7 12 15 15 13 10 8 7 7 8 9 11 10 6
Wind_Direction
242 240 238 239 238 238 240 240 242 247 251 253 253 253 251 248 246 247 248 247 249 247 242 241 243 245 256 267 263 263 261 254 254 250 239 242 246 244 247 252 239 239 243 253 269 266 253 241 241 233 235 245 221 234 185 175 229 229 215 237 250 253 254 278 326 358 97 119 123 151 194 208 138 141 123 114 226 171 151 177 136 120 99 103 119 131 133 141
241 240 238 238 237 236 237 239 239 241 246 249 250 252 254 251 247 246 247 247 246 247 244 240 242 241 247 260 260 262 256 256 258 248 243 246 249 246 242 240 235 235 239 244 249 250 248 240 233 225 219 231 212 187 145 170 190 222 243 244 237 247 271 6 17 22 40 64 96 122 202 349 105 133 139 170 206 189 179 197 169 173 147 120 127 139 141 146
242 241 239 237 236 236 235 236 236 236 241 244 247 249 251 251 248 245 243 245 244 245 244 240 242 240 243 250 253 255 257 278 278 259 255 250 245 242 233 230 230 233 237 242 246 246 249 253 248 234 220 225 215 189 182 170 175 211 231 251 247 256 284 13 49 43 36 6 49 95 54 8 68 115 144 216 239 207 196 204 185 196 187 149 146 150 151 154
242 241 240 238 236 236 234 234 234 233 236 240 244 245 248 250 248 245 241 241 243 243 241 240 241 240 242 242 242 238 261 308 287 260 261 252 242 239 229 226 226 228 238 248 253 253 253 257 255 239 228 233 223 217 221 197 176 208 209 240 255 269 302 21 65 50 43 10 11 60 51 319 259 104 141 211 269 249 218 228 191 200 198 166 156 156 160 162
241 241 240 239 237 236 235 233 232 232 233 236 240 243 245 247 249 246 241 239 241 242 238 238 240 240 237 232 229 206 123 302 261 187 247 243 237 233 227 226 227 229 237 248 255 257 256 256 253 237 233 238 224 223 234 227 206 241 245 245 258 276 305 34 66 43 41 10 331 34 349 317 46 95 182 214 248 240 124 20 33 105 195 152 150 155 164 169
240 240 239 239 238 235 235 233 232 232 231 233 236 240 242 245 249 247 242 237 237 240 236 234 238 236 230 226 221 193 167 233 100 84 87 238 226 223 224 226 229 230 232 243 248 248 251 250 245 226 229 239 230 224 221 226 220 238 258 257 262 270 273 3 78 21 28 339 292 351 338 8 358 267 218 206 228 233 98 68 52 39 46 110 138 152 167 176
238 238 238 237 238 236 235 234 232 231 230 231 233 237 240 243 247 247 243 235 234 237 233 230 232 230 224 218 212 198 200 232 199 117 75 21 255 214 220 224 229 229 226 237 239 235 238 239 235 211 215 230 229 229 222 224 229 233 240 252 256 251 257 251 102 138 107 261 317 19 340 316 274 275 253 217 222 242 39 91 94 81 77 109 138 154 174 184
237 237 237 237 238 237 235 234 232 231 230 229 230 233 236 240 244 245 242 234 230 232 231 226 224 226 221 208 201 210 222 226 225 233 257 305 318 227 212 218 225 225 222 231 234 231 227 230 231 217 219 229 231 229 226 227 232 243 241 251 268 259 257 315 114 158 220 233 158 9 279 264 258 292 338 260 246 246 232 132 122 117 123 144 159 160 178 191
235 236 236 236 237 236 235 234 232 231 230 228 228 230 232 235 240 242 241 234 227 228 228 224 222 224 221 209 199 232 236 221 228 242 254 261 276 230 202 209 214 216 221 225 231 233 224 223 225 228 236 238 244 236 230 234 228 237 231 228 259 263 233 216 207 195 221 229 184 211 244 251 246 69 243 240 246 254 242 167 147 149 162 178 182 177 186 192
234 234 234 234 235 236 235 235 233 231 230 229 226 227 228 230 235 239 240 235 227 226 225 223 221 214 213 208 210 233 231 187 219 236 243 236 226 212 202 206 204 209 222 222 227 231 222 226 222 244 276 256 250 246 234 237 239 237 235 233 242 255 248 204 206 219 218 223 218 223 245 256 225 152 227 232 233 236 235 203 165 175 195 199 204 199 196 196
235 234 234 233 234 235 235 234 234 231 230 230 226 226 226 226 231 234 237 237 228 223 223 222 219 207 205 207 222 228 133 165 200 209 224 222 208 206 208 209 201 207 226 222 225 231 230 237 224 112 312 278 261 257 249 242 251 252 251 267 250 251 256 200 175 228 225 213 218 226 252 261 231 193 223 246 254 225 223 217 183 191 204 210 219 209 201 197
233 234 233 232 232 233 234 234 233 231 230 230 227 225 224 225 228 230 234 236 230 224 221 220 217 207 203 219 230 225 129 180 186 172 194 197 193 206 217 210 196 202 233 234 227 229 231 239 229 164 193 280 249 244 274 259 255 259 243 265 267 251 247 207 188 220 221 210 188 197 262 249 230 232 224 226 243 217 210 223 204 202 196 206 223 218 208 191
232 233 233 232 231 231 232 233 232 231 230 229 227 225 225 225 226 228 230 232 231 224 219 218 216 206 202 234 237 229 228 186 174 174 182 183 185 192 198 198 192 198 229 258 248 241 238 242 247 210 194 292 238 227 313 280 235 268 248 250 265 256 238 207 204 211 216 210 159 151 255 237 223 234 226 213 220 217 209 217 221 214 191 198 209 210 216 193
231 232 232 231 231 230 231 232 232 231 228 229 227 225 226 225 225 226 227 230 229 225 221 216 210 203 205 238 246 225 215 193 179 176 176 179 175 172 182 191 194 197 215 270 312 291 259 234 247 274 190 277 255 327 319 257 192 226 242 239 233 245 238 205 198 197 208 197 155 166 242 251 248 249 246 225 205 211 222 219 224 229 214 211 205 201 212 203
231 231 230 230 230 229 229 230 230 229 228 228 226 226 226 226 226 225 226 227 227 226 221 214 203 193 216 248 247 212 195 188 186 179 183 184 169 163 178 187 191 195 207 214 5 343 249 179 176 70 85 264 236 205 232 223 218 210 223 230 219 229 237 226 208 189 196 187 162 183 240 250 253 254 261 249 192 192 216 224 224 229 228 227 221 210 210 209
230 231 230 227 228 229 228 227 227 227 228 226 224 225 225 227 227 226 227 224 226 224 217 211 197 186 225 240 203 194 188 190 193 184 193 195 179 173 170 173 177 157 180 186 63 23 91 134 122 31 44 259 204 190 185 221 229 209 218 229 217 219 221 235 232 183 185 182 173 204 240 240 248 245 248 257 194 185 196 218 234 240 235 235 235 229 225 218
228 231 231 226 226 227 227 227 225 224 226 224 222 222 223 228 228 229 229 224 227 224 217 209 186 185 242 237 173 184 185 192 194 184 186 188 177 166 158 156 158 134 121 131 92 38 49 100 90 26 43 241 198 172 185 216 219 210 218 235 230 225 213 198 201 172 182 195 195 211 231 240 259 271 299 47 112 158 192 218 236 248 251 254 258 255 251 234
226 228 229 225 224 225 226 226 223 222 223 221 220 220 222 227 229 233 234 227 227 224 222 215 180 180 227 223 211 195 184 188 183 174 172 167 159 154 149 135 131 129 108 85 116 87 33 51 161 200 177 204 195 181 203 211 204 206 211 226 237 227 221 212 201 169 183 208 218 216 225 232 250 263 263 265 190 174 215 223 222 234 242 248 248 246 246 235
227 227 224 222 222 223 224 224 222 221 220 219 218 216 219 227 234 238 233 226 216 216 222 194 178 186 246 219 212 202 184 181 170 161 160 151 147 141 129 120 115 122 121 136 183 171 159 100 156 213 191 199 199 196 208 205 188 206 220 243 248 234 223 218 217 184 184 208 224 226 236 233 239 251 248 249 238 213 216 218 216 227 234 242 242 237 237 236
228 226 223 220 219 221 221 220 219 218 217 217 210 204 213 210 216 232 223 220 214 222 238 179 184 203 263 252 196 191 179 175 165 152 157 150 138 130 118 118 113 121 139 152 163 171 177 161 192 213 204 201 203 205 210 218 217 191 78 304 263 256 235 214 220 194 182 203 220 222 239 242 246 255 247 242 245 236 227 223 220 220 221 227 234 235 233 234
227 223 223 220 217 217 218 217 215 213 215 215 203 194 202 190 190 192 190 212 222 224 237 213 190 207 221 274 164 172 162 168 172 155 158 152 138 134 137 140 135 154 157 146 140 136 176 199 208 206 209 207 203 211 213 222 232 184 112 267 264 256 249 239 231 165 154 196 231 231 243 242 244 258 259 249 247 250 248 244 241 235 228 218 220 229 230 228
226 221 219 219 217 217 218 217 213 211 213 214 207 202 219 201 199 154 153 211 228 221 233 231 217 220 222 240 166 162 143 162 185 173 159 154 152 156 159 160 155 158 155 141 132 138 184 225 224 196 210 223 208 208 213 221 225 197 173 246 267 243 251 258 212 114 109 169 261 262 264 259 256 263 266 258 247 247 246 248 250 248 246 234 224 227 230 229
225 219 216 217 215 216 218 216 211 208 209 213 211 208 220 209 209 239 224 217 227 208 221 224 216 223 223 230 182 168 165 173 182 183 169 163 170 171 161 168 167 153 156 159 158 160 177 227 228 124 284 245 223 209 208 221 227 205 171 203 250 230 220 229 169 147 159 191 275 281 277 274 278 281 279 272 261 253 247 245 247 244 242 240 234 231 229 228
224 218 215 214 213 213 214 213 208 206 208 213 215 214 218 208 210 232 234 251 244 195 200 211 210 215 218 216 185 182 184 178 179 181 176 172 163 161 168 173 166 159 168 170 163 162 169 151 126 92 333 261 230 214 207 212 222 214 188 203 235 241 243 254 185 182 181 198 266 314 302 269 244 248 257 262 259 252 248 245 248 245 239 239 240 239 235 234
222 219 215 212 214 213 208 207 206 205 207 211 218 218 215 208 209 215 198 252 256 187 191 198 202 215 208 191 186 191 189 190 188 174 177 181 170 162 178 180 168 176 180 174 165 167 192 170 125 122 353 335 204 211 212 211 215 213 199 217 237 243 264 263 198 176 186 239 205 159 289 268 210 228 239 243 245 244 238 233 238 243 241 238 237 240 243 241
222 220 216 211 212 211 205 205 208 205 204 213 219 217 209 211 214 187 149 274 234 181 175 175 171 190 190 184 169 155 192 205 184 161 174 186 185 178 186 185 191 193 178 169 175 182 195 178 143 149 164 27 52 205 204 205 204 208 207 247 255 240 243 252 236 179 178 256 212 161 217 269 267 247 253 263 263 258 248 233 232 234 233 228 225 232 235 233
220 219 215 212 211 207 202 199 198 195 196 220 217 210 202 205 200 161 156 268 229 163 154 166 165 174 179 172 152 140 176 166 117 171 181 185 187 205 207 183 184 197 169 145 194 189 167 176 173 180 195 223 281 274 146 170 171 185 330 15 17 291 265 260 263 245 193 315 316 197 188 275 278 247 239 264 275 273 269 262 247 226 212 213 221 229 231 233
218 218 215 213 211 206 204 190 175 188 206 212 204 197 196 193 179 150 189 239 206 128 147 167 154 168 173 158 158 172 164 143 157 202 187 186 184 172 229 188 177 186 168 160 194 175 161 179 188 190 197 212 224 222 116 100 122 154 321 36 55 27 15 12 298 287 337 5 273 225 151 269 273 229 191 228 244 255 260 257 249 226 201 207 222 233 239 242
217 216 214 213 211 209 209 196 183 202 206 191 184 191 186 177 169 153 237 230 172 98 154 154 146 161 160 154 166 188 190 158 173 165 165 190 187 128 230 195 183 185 177 178 188 150 165 180 183 185 192 206 207 200 156 117 116 156 47 40 42 27 30 30 12 2 356 313 242 232 186 238 275 254 177 213 223 239 251 248 244 232 210 205 215 234 244 249
215 214 213 210 209 209 207 205 206 207 196 183 183 176 161 157 169 204 228 219 114 125 177 157 162 154 152 164 178 184 190 186 145 141 160 184 175 301 287 213 185 189 185 193 185 104 147 166 171 180 189 193 180 154 141 142 139 124 52 36 23 13 31 29 19 45 15 266 242 234 212 228 272 257 179 208 213 223 233 230 243 233 209 204 216 234 241 242
214 212 211 207 207 205 199 208 212 202 190 189 177 155 144 148 194 212 220 235 66 176 170 156 159 152 159 171 172 178 187 184 149 155 166 171 168 222 243 118 150 180 180 197 181 110 132 154 165 175 164 151 131 104 66 111 127 110 79 63 21 355 16 32 36 85 217 249 238 222 215 225 251 251 188 234 241 235 221 212 228 210 182 203 226 235 238 236
213 212 210 208 207 201 199 209 204 196 190 181 166 149 151 181 210 217 211 80 157 189 163 156 157 154 165 172 166 177 183 180 174 170 161 170 179 183 195 189 169 176 184 175 165 144 150 167 162 144 149 149 138 125 96 103 129 124 121 122 104 284 293 315 192 174 220 255 265 206 201 212 241 254 262 262 258 259 240 221 235 222 208 243 251 264 277 267
212 211 210 209 205 201 205 206 196 196 186 168 159 150 174 205 209 207 208 174 211 190 155 160 164 157 160 166 172 178 179 180 180 175 165 171 181 187 201 201 179 179 175 158 160 148 155 180 163 141 148 161 154 150 162 173 169 167 163 161 171 194 224 227 221 247 242 258 284 225 201 207 232 246 264 265 255 248 240 235 244 241 246 260 262 271 286 290
210 208 208 208 207 204 204 199 194 195 178 157 158 170 185 215 195 187 210 224 313 204 158 156 165 161 161 165 167 169 175 182 178 175 170 170 182 190 201 207 192 177 116 152 166 160 175 195 171 163 160 168 175 178 172 155 166 186 181 164 185 194 198 218 212 218 252 276 283 228 201 214 203 255 320 315 289 252 231 229 235 232 239 252 261 262 263 278
206 205 206 205 207 206 201 199 197 188 172 156 179 195 192 206 184 192 209 199 242 213 160 155 162 164 170 170 166 172 176 176 176 177 175 175 183 187 189 199 197 187 156 164 172 178 196 208 167 169 163 168 181 182 152 128 152 189 145 147 209 199 175 192 168 141 107 341 291 216 218 276 265 298 305 303 310 305 269 248 236 240 250 249 257 255 231 241
198 200 203 201 204 205 199 197 190 177 169 169 199 206 204 206 188 192 192 171 203 194 157 160 166 165 177 173 169 180 181 163 171 175 179 181 183 185 183 183 190 194 185 173 162 176 200 192 164 166 163 174 180 166 159 160 160 163 155 172 209 132 136 151 177 113 102 264 254 212 254 281 281 293 289 262 257 263 272 279 250 251 261 246 242 241 215 228
191 194 197 200 203 201 197 194 183 173 168 173 202 210 205 213 208 171 185 169 180 187 169 165 171 167 166 167 174 177 171 161 171 172 175 180 182 179 176 169 182 194 202 189 179 186 183 162 166 168 166 178 177 156 164 175 135 148 172 160 96 35 98 136 189 160 167 237 243 211 233 242 229 269 281 273 268 240 225 244 248 253 256 240 237 224 210 234
186 184 193 205 201 197 194 186 173 171 175 186 206 215 194 205 209 164 250 191 170 191 193 171 172 178 163 161 173 172 169 173 175 171 167 175 179 171 170 167 177 191 208 183 164 191 153 124 175 183 170 164 161 156 162 141 86 115 155 153 138 95 182 160 183 193 191 219 234 207 214 209 201 228 252 274 287 279 250 243 238 241 235 226 222 205 214 238
174 173 199 200 197 196 189 177 162 164 189 193 205 213 190 206 216 186 261 243 188 190 203 187 162 174 175 165 163 169 176 179 173 172 177 175 178 175 173 170 176 190 199 166 155 159 130 122 188 198 169 152 157 173 178 164 110 65 105 163 171 160 177 179 177 179 195 209 226 218 199 197 211 221 233 248 260 269 269 267 262 250 225 195 168 167 183 167
158 169 192 183 189 188 174 166 157 170 191 196 206 203 160 194 219 206 233 245 226 198 201 202 163 160 172 172 167 174 184 182 174 174 185 178 170 176 177 171 171 183 188 171 156 124 97 111 151 171 159 159 178 198 188 174 155 141 152 172 187 179 120 184 185 168 165 188 214 229 228 227 205 201 215 225 232 240 241 248 259 249 160 97 87 91 92 99
153 183 180 174 179 171 156 153 171 186 192 206 210 201 165 172 187 203 217 221 246 261 195 182 183 166 162 170 175 179 183 183 178 174 179 180 174 175 181 175 166 168 171 167 163 155 142 124 137 158 169 182 200 199 182 172 166 171 178 178 186 184 155 164 201 187 167 194 195 207 248 256 211 180 224 224 232 250 241 251 300 74 79 64 51 36 48 96
160 190 153 163 166 160 150 156 185 173 204 203 193 188 170 174 176 202 214 206 236 276 200 168 183 176 160 166 174 178 179 183 183 179 174 184 183 176 176 170 161 161 163 166 178 176 141 108 137 163 174 178 194 147 127 165 179 186 200 189 184 186 179 183 195 182 173 229 258 103 260 262 237 232 280 265 266 290 326 36 38 48 51 40 22 8 57 124
164 170 140 153 159 156 155 192 175 179 216 178 153 154 163 180 189 194 215 206 211 267 245 165 160 172 183 163 159 177 182 184 188 185 175 178 181 169 166 163 158 161 163 166 176 168 83 107 148 144 126 55 23 25 26 28 178 190 207 202 188 191 197 190 151 148 163 191 211 192 238 267 256 226 257 267 273 288 308 57 66 19 350 358 348 315 196 142
144 124 130 153 158 158 163 189 178 185 199 164 163 179 171 223 203 192 210 217 206 215 237 181 157 165 172 150 152 175 176 178 193 190 174 164 169 286 172 165 162 166 174 177 173 161 135 160 161 150 148 131 91 97 21 353 225 201 199 198 192 188 192 191 122 109 158 200 204 195 222 255 256 219 260 279 297 296 302 18 58 353 298 283 281 272 221 137
128 86 356 154 158 164 182 192 176 181 177 171 182 179 171 222 240 215 209 215 227 207 198 203 161 151 148 147 155 166 164 204 203 185 155 133 122 328 181 168 170 174 177 170 158 155 160 164 167 170 174 174 171 171 175 186 202 193 164 183 194 192 187 188 191 192 204 207 203 198 224 254 281 292 285 291 309 309 307 325 347 334 300 286 275 268 244 121
145 143 345 131 151 174 209 249 181 187 172 168 181 179 182 193 217 303 216 214 240 232 192 182 152 138 143 150 149 148 140 343 135 147 122 125 125 325 200 171 174 172 161 153 147 143 137 164 188 196 194 187 184 164 139 137 155 178 182 188 198 203 195 180 173 202 211 211 211 213 223 253 277 276 270 271 288 299 298 303 315 317 312 319 319 302 283 244
159 168 157 130 144 175 190 336 187 191 176 171 175 172 184 191 171 341 236 218 211 205 234 315 159 155 154 148 136 132 132 84 116 132 115 101 100 21 47 117 137 144 135 138 147 135 117 182 197 201 210 201 175 154 138 139 168 188 192 195 198 202 200 192 195 208 203 205 228 222 210 233 260 263 264 264 254 266 277 283 292 288 288 312 319 306 296 285
172 142 144 111 156 171 177 179 181 187 182 180 180 170 181 188 180 186 240 227 182 177 179 293 175 168 161 153 145 140 134 120 133 139 119 103 120 101 63 57 72 110 101 88 145 128 122 190 201 194 205 209 148 149 150 152 174 186 190 199 200 198 200 202 211 215 201 201 227 221 201 215 241 256 267 271 257 258 272 277 277 277 279 282 277 276 281 282
126 101 112 25 250 184 178 171 171 179 181 183 190 182 181 186 187 193 224 195 173 176 181 185 176 169 162 153 142 142 153 156 158 160 150 142 146 139 112 89 96 120 108 102 135 60 112 192 202 179 201 215 115 115 140 147 161 180 189 195 195 197 203 208 215 218 215 220 229 228 223 230 243 261 270 270 268 276 283 277 271 269 267 259 254 256 262 266
124 128 149 147 192 184 176 168 167 173 178 184 191 188 184 187 186 185 193 184 173 178 186 180 173 171 167 160 155 168 179 172 159 163 158 148 155 160 147 138 141 145 146 139 152 271 188 187 176 142 171 234 151 143 193 141 130 161 185 180 177 182 192 207 221 220 219 226 228 230 242 251 250 255 262 269 276 280 274 274 277 274 247 233 241 248 251 260
48 28 143 147 151 164 167 167 169 173 179 186 189 182 183 188 182 170 174 225 191 187 193 181 169 166 166 172 180 184 181 168 153 160 162 155 158 160 143 137 137 138 143 146 150 172 166 157 151 138 161 222 184 185 207 168 140 183 202 179 185 186 190 201 208 206 205 210 216 220 233 244 240 240 257 272 275 264 259 265 276 285 281 261 259 262 258 256
42 43 100 132 145 167 171 168 172 180 184 182 183 182 182 184 175 164 164 285 267 213 203 177 163 160 166 179 189 180 159 148 141 144 149 137 121 105 115 142 149 147 156 162 151 160 164 151 144 152 171 214 187 175 180 160 167 212 210 201 207 211 213 214 213 210 202 195 199 209 218 232 237 230 246 264 267 264 261 259 263 284 305 307 296 291 287 272
Height
771 773 774 775 777 778 779 781 782 783 784 786 787 788 789 791 792 794 796 797 798 799 801 802 803 805 806 807 808 809 810 811 811 811 810 807 809 811 812 814 814 814 815 817 817 817 815 815 815 814 815 815 815 814 813 811 811 817 825 834 836 830 822 813 810 807 807 810 810 808 806 809 814 812 808 809 812 813 815 814 813 813 813 814 816 817 819 821
769 770 772 773 775 776 778 779 780 781 783 784 786 787 788 789 790 792 794 796 797 798 800 801 803 804 805 807 807 808 809 810 810 808 805 805 808 809 812 813 814 814 815 816 817 816 816 815 813 813 815 817 815 813 815 812 812 821 826 832 832 823 813 805 805 805 805 809 809 807 806 808 811 812 810 814 817 815 818 818 814 816 816 816 817 818 819 820
766 768 770 771 773 774 776 777 778 780 781 783 784 785 787 788 789 791 793 795 796 798 799 801 802 803 805 806 807 808 809 810 809 804 802 804 806 807 810 812 813 814 815 816 816 816 815 814 813 813 816 818 815 814 818 815 815 819 824 831 826 814 809 802 802 805 806 807 807 809 808 809 809 808 811 816 817 815 818 817 816 818 816 816 817 817 819 820
764 766 767 769 771 772 774 776 777 778 780 781 783 784 785 786 788 790 791 793 795 797 798 800 801 802 804 805 807 808 808 811 806 798 798 801 802 805 807 810 812 814 815 815 816 815 814 813 813 813 817 820 816 815 818 815 815 816 819 827 818 809 810 804 802 805 806 807 808 810 811 812 807 806 811 814 819 818 814 811 811 813 811 811 815 815 817 819
762 763 765 767 769 770 772 774 775 777 778 780 781 782 784 785 787 788 790 792 794 795 797 799 800 802 804 804 807 807 810 815 802 792 795 796 798 803 805 808 811 813 815 815 815 815 814 813 812 815 819 820 818 818 819 812 812 817 816 816 811 809 812 806 804 808 807 808 810 811 814 813 807 808 811 814 820 818 811 808 806 805 804 805 810 814 816 817
759 761 763 765 766 769 770 772 773 775 777 778 780 781 782 784 785 787 788 790 792 794 796 798 799 801 802 804 806 806 810 809 795 791 795 794 797 801 804 807 809 813 814 815 815 815 815 814 814 818 820 821 820 819 818 811 810 819 817 811 809 809 811 806 806 810 808 810 812 813 813 811 811 813 810 811 815 810 805 804 804 804 802 803 808 812 815 816
757 758 760 762 764 766 768 770 771 773 775 777 778 779 781 782 784 786 787 789 791 793 795 797 799 800 801 803 804 805 805 799 791 793 794 795 798 800 804 807 809 813 814 815 815 815 815 815 815 817 820 821 819 816 815 811 810 817 817 811 809 807 807 805 807 811 810 812 812 811 812 813 816 815 809 809 808 804 802 801 802 804 804 805 808 811 813 814
754 756 757 760 762 764 766 768 769 771 773 775 777 778 780 781 783 784 785 788 789 792 794 796 798 799 801 802 802 803 799 793 791 792 793 795 798 800 805 807 809 812 813 814 813 813 814 815 815 814 819 819 815 814 812 812 813 813 814 812 809 807 806 804 806 811 811 811 810 811 814 814 813 812 811 810 806 802 801 801 802 803 805 806 808 809 811 812
752 754 755 757 760 761 763 765 767 769 771 773 775 777 778 780 782 783 784 786 788 791 792 795 796 797 800 799 801 801 792 787 790 792 793 795 797 800 803 805 809 811 812 813 812 813 813 814 814 812 816 816 812 811 810 815 817 810 809 811 810 808 805 804 807 810 811 811 810 813 816 813 809 810 812 808 804 802 800 801 802 803 806 806 807 808 809 810
749 751 753 755 757 759 761 763 765 767 769 771 773 775 777 778 780 782 783 784 787 789 791 794 795 796 799 798 801 799 787 785 789 790 792 794 796 800 802 805 807 809 811 811 811 811 811 811 811 811 814 812 810 810 809 813 811 805 806 808 808 807 804 803 807 808 810 810 810 814 816 812 807 811 814 806 800 800 800 802 801 803 806 805 806 805 806 807
747 749 751 753 755 757 759 761 763 765 767 769 771 773 775 777 779 780 781 783 785 787 790 792 793 795 796 797 799 793 784 786 788 788 790 791 794 798 800 803 805 808 810 809 810 809 809 809 808 812 817 814 811 811 807 806 805 803 806 809 807 806 804 802 807 809 810 811 809 811 814 812 809 812 812 805 799 798 800 801 800 802 804 803 804 803 803 804
744 746 748 750 753 754 757 759 761 763 765 767 769 771 773 775 777 779 780 782 784 786 788 790 793 794 795 796 792 786 784 786 786 788 789 789 792 795 798 801 802 806 809 809 809 808 809 808 808 813 816 813 812 814 809 802 803 804 805 813 811 806 806 804 807 809 810 811 806 809 819 817 812 810 806 802 798 797 800 800 800 800 801 802 802 801 801 801
742 743 745 748 750 752 755 757 759 761 763 765 768 769 772 774 775 777 778 780 782 784 786 789 791 792 795 793 784 782 785 786 786 787 788 790 791 793 797 800 801 804 808 809 808 808 809 809 810 811 811 812 813 813 808 801 805 808 807 814 817 815 811 804 805 808 809 809 803 811 829 822 809 804 798 796 795 797 800 801 800 799 798 799 799 800 800 799
739 741 743 745 748 750 752 755 757 759 761 764 766 768 770 772 774 775 777 779 780 783 785 786 789 791 793 788 780 782 785 785 786 786 787 789 790 792 795 798 801 802 805 808 808 808 809 809 811 812 812 814 812 810 810 807 808 813 815 816 820 825 817 802 801 806 809 807 800 813 830 821 806 800 793 791 792 797 801 801 800 799 797 797 797 798 798 796
736 738 741 743 745 748 750 752 755 757 759 762 764 767 769 771 772 774 776 777 779 781 783 784 786 789 792 785 779 781 783 783 784 784 785 787 788 791 793 796 800 802 804 807 809 809 809 809 812 815 817 814 812 814 817 815 812 815 823 824 820 823 817 803 798 801 808 806 800 813 827 819 806 799 791 788 790 795 799 800 799 798 796 796 795 795 795 794
733 736 738 740 742 745 748 750 753 755 758 760 763 765 767 770 771 773 775 776 778 780 781 782 782 786 790 783 778 779 780 780 782 783 784 785 787 789 792 796 799 802 805 807 809 811 810 810 814 817 819 817 816 818 823 827 824 816 821 825 819 820 820 811 800 795 801 806 805 812 819 814 803 796 790 787 788 792 796 798 797 796 795 794 793 792 792 792
731 733 735 737 740 743 745 748 751 753 756 759 761 764 766 768 770 772 773 775 777 778 779 779 779 786 786 778 775 776 774 776 779 781 783 784 786 788 792 795 798 802 805 808 811 811 811 813 818 819 820 821 819 821 831 837 832 821 819 821 817 814 817 816 807 797 797 805 809 809 812 811 802 795 791 788 788 791 795 797 796 795 794 793 792 792 791 791
728 731 733 735 738 740 743 746 748 751 754 757 760 762 765 768 770 771 772 773 775 778 779 777 779 784 780 773 772 771 769 773 776 778 781 784 786 788 791 794 796 800 805 811 813 813 815 817 821 823 824 825 822 823 828 826 823 822 820 821 819 812 812 813 809 801 799 804 808 809 811 810 803 796 794 791 790 793 794 794 794 794 794 793 792 792 792 791
726 728 730 733 735 738 741 743 746 749 752 756 759 762 765 767 769 769 769 772 772 772 771 768 770 771 766 762 764 766 767 770 773 776 780 783 786 789 791 793 796 799 807 815 815 815 816 820 825 826 825 823 818 816 816 811 810 815 817 821 822 814 808 806 804 798 798 805 809 809 809 807 803 798 795 793 790 792 793 792 793 793 792 792 792 792 791 790
724 725 727 730 732 736 738 741 744 747 751 754 756 761 763 765 769 768 766 767 765 761 760 759 759 760 758 755 758 765 768 770 773 775 778 781 784 789 793 795 799 803 808 814 817 815 815 821 825 822 817 814 812 810 808 807 806 811 820 825 823 817 809 801 798 794 794 804 808 804 805 804 800 796 792 791 790 790 791 791 791 791 790 790 791 790 789 789
721 723 725 727 730 733 736 738 741 744 749 752 754 757 756 756 761 760 760 763 760 758 758 757 758 758 755 754 756 762 767 772 774 774 776 779 781 789 794 796 801 807 808 810 815 815 816 819 815 812 810 808 808 808 808 808 808 814 822 825 824 821 813 800 796 795 793 804 807 801 804 803 797 794 790 788 789 789 789 789 789 787 787 787 788 788 787 785
719 721 722 725 727 730 733 736 739 743 747 750 751 752 749 748 750 750 754 760 757 756 758 758 760 758 754 755 757 760 766 773 776 774 774 777 780 786 792 796 800 805 805 807 813 817 821 818 808 806 807 805 805 805 808 809 809 816 822 828 828 820 814 806 799 798 798 806 809 804 806 804 795 791 788 786 787 787 786 786 785 784 785 785 785 784 784 783
717 718 720 723 725 728 731 734 737 741 744 746 747 746 745 747 750 750 753 757 752 751 755 756 759 759 756 756 757 758 763 768 772 772 770 774 778 780 786 792 795 799 802 805 808 814 819 814 807 808 808 808 807 804 807 810 811 816 822 831 829 817 817 817 808 802 801 805 808 807 808 804 797 793 789 785 784 784 783 782 781 780 781 781 780 780 780 781
714 716 718 720 723 726 728 732 736 738 740 743 743 742 743 749 752 752 755 756 749 744 747 751 755 756 754 754 755 756 759 761 764 767 766 769 773 776 781 784 788 796 799 798 802 807 810 808 805 808 810 809 809 806 807 812 816 817 820 825 822 816 816 816 812 806 803 804 804 808 815 808 800 800 794 785 783 782 781 780 779 777 776 776 776 776 777 777
711 714 715 717 721 723 727 732 732 734 737 740 740 740 745 751 751 752 757 758 749 743 745 748 752 752 750 753 754 754 757 757 757 760 763 764 768 772 777 777 782 792 794 793 799 804 805 804 804 809 812 809 809 809 807 811 816 818 817 815 815 817 817 814 813 811 815 818 806 808 824 813 794 796 794 785 783 781 779 778 778 776 774 775 775 775 775 774
709 711 712 715 718 721 727 728 726 730 735 736 735 739 746 749 750 753 759 761 749 741 744 746 748 747 746 750 753 757 763 758 754 756 760 762 763 766 773 776 778 784 787 791 797 801 801 801 802 808 811 810 811 812 808 809 816 821 818 812 811 813 816 816 815 816 824 824 806 803 823 819 798 794 790 784 784 780 776 776 774 773 772 772 773 773 772 771
706 708 710 713 716 720 724 722 724 730 731 730 730 739 745 747 751 753 760 763 744 731 739 743 741 739 738 743 749 758 761 755 755 758 756 759 761 764 771 775 777 777 778 788 798 795 795 801 803 805 808 812 815 814 810 808 815 822 817 812 812 812 815 817 817 818 817 814 808 802 813 823 812 797 788 784 786 782 776 776 772 770 770 769 770 770 769 768
702 705 708 711 713 717 719 720 724 725 724 726 730 739 743 745 751 753 761 757 726 714 729 735 735 734 734 739 744 750 749 745 754 758 753 756 760 765 770 769 772 773 772 783 793 787 787 797 801 802 808 813 813 812 809 808 816 822 817 813 815 816 816 816 818 819 812 815 823 812 811 825 813 791 786 785 787 786 779 775 772 768 767 767 768 768 765 764
699 703 705 708 712 714 717 720 720 718 721 727 733 738 741 746 752 754 757 742 710 706 718 722 730 734 735 740 743 746 745 742 749 753 755 758 758 763 767 763 764 769 770 775 782 784 784 788 791 797 806 807 805 807 807 809 816 820 816 815 816 817 818 820 822 822 820 825 831 818 814 826 812 788 786 789 788 787 779 773 770 766 765 765 765 765 762 762
696 699 702 707 710 711 716 718 716 717 723 728 732 736 741 747 751 753 747 722 703 709 714 714 723 727 733 742 745 746 746 744 746 751 757 759 759 763 762 758 761 768 774 774 777 782 781 780 786 791 795 797 799 805 807 807 812 814 815 818 820 822 822 825 826 826 832 832 826 817 812 822 817 792 783 785 781 778 775 771 768 764 762 762 761 761 760 760
693 696 700 704 704 707 713 714 713 718 723 725 730 735 741 747 748 746 732 710 705 712 712 714 718 719 727 736 741 745 744 745 747 751 756 758 761 767 765 763 767 775 782 782 783 785 783 785 788 786 786 790 799 808 809 808 809 811 817 822 828 830 829 833 834 833 839 831 816 813 811 820 822 797 779 775 769 767 769 768 766 763 761 760 759 759 758 758
689 693 697 700 702 705 708 707 710 717 721 723 729 734 740 745 741 733 719 710 713 711 708 712 712 715 724 729 736 741 741 744 746 747 751 755 758 762 764 762 763 773 781 783 786 788 787 787 786 784 785 787 796 809 814 813 811 813 819 827 836 840 837 839 837 834 834 824 810 807 810 819 817 793 777 774 768 766 765 762 762 761 760 759 759 759 758 757
686 690 694 697 700 701 703 706 712 717 718 721 727 732 738 738 728 719 714 713 712 705 703 708 707 709 718 725 734 738 738 741 743 745 747 751 755 757 758 755 753 761 769 774 782 788 790 788 785 788 789 785 789 801 811 812 811 813 815 821 832 838 841 841 834 830 829 820 808 803 810 818 808 786 776 772 766 763 761 759 759 758 758 758 757 758 758 757
683 688 691 694 697 698 702 708 711 714 716 721 727 730 733 730 717 711 715 714 711 704 700 703 707 710 713 718 728 733 736 740 739 742 746 748 753 757 758 756 752 754 762 772 779 781 786 787 784 785 785 783 784 786 793 799 806 810 807 812 821 822 826 832 829 829 830 824 814 808 812 816 803 784 773 768 762 758 757 757 756 756 756 756 756 757 758 757
681 686 689 692 695 697 702 706 708 712 716 721 726 723 720 718 708 706 709 710 714 709 699 699 705 714 716 714 721 725 726 734 737 740 746 746 746 749 752 754 754 751 757 770 775 773 777 778 775 774 772 775 780 780 783 794 806 809 805 812 818 810 811 822 827 829 832 833 825 813 810 806 791 776 767 766 763 758 756 755 755 756 755 755 757 757 757 757
679 683 687 688 690 693 698 703 706 710 715 719 722 716 709 707 702 701 700 702 710 707 700 702 704 711 719 717 720 722 719 725 734 738 744 744 741 742 743 746 750 748 748 756 764 768 774 774 771 772 772 772 775 777 780 787 798 805 808 813 812 805 806 818 829 831 834 837 824 810 809 802 792 781 766 762 764 760 759 757 756 757 755 756 757 756 756 756
675 679 683 684 685 690 696 700 704 709 714 718 718 710 704 704 702 700 697 696 704 702 695 699 701 704 715 719 719 720 719 725 732 736 740 741 739 738 740 743 745 744 741 745 754 758 763 772 772 771 776 775 770 776 781 781 788 800 808 808 807 810 809 813 825 830 834 835 817 805 808 806 803 793 768 761 765 762 760 759 757 757 756 756 756 755 755 755
670 676 681 681 683 689 693 699 703 708 713 715 714 708 704 705 703 701 699 693 697 702 696 693 697 700 707 716 717 715 717 723 730 734 738 739 734 731 736 744 744 744 742 742 750 751 752 771 779 770 772 775 771 779 788 789 789 794 797 796 802 813 815 815 821 821 823 827 813 803 806 804 800 789 770 766 768 763 761 759 758 757 755 754 754 754 754 754
671 678 680 677 681 688 692 697 702 708 713 712 709 708 705 705 702 699 700 696 694 699 699 691 691 698 704 708 712 714 713 715 721 728 732 733 731 726 728 736 740 743 743 739 745 749 749 766 779 771 768 773 775 781 789 792 793 794 795 795 795 803 808 809 810 807 809 813 808 802 803 798 786 776 770 769 765 761 761 758 755 754 752 751 752 753 754 755
669 675 675 673 680 686 691 698 703 706 708 706 703 705 705 704 703 699 700 702 697 694 696 693 688 694 702 703 706 710 709 708 713 719 723 724 725 726 726 728 735 741 742 741 743 748 751 760 773 774 771 775 778 776 776 781 788 792 798 800 797 800 804 804 801 800 803 806 805 802 799 787 769 761 763 763 759 757 756 754 753 751 749 750 751 752 753 754
666 672 671 671 678 685 691 699 704 704 704 703 701 703 705 703 702 700 699 704 705 694 688 692 690 687 693 700 703 705 706 708 710 714 719 717 719 726 723 721 728 735 741 746 747 748 752 758 769 775 775 776 774 767 765 771 778 783 788 790 791 794 800 804 803 801 801 801 797 799 799 781 760 752 754 753 752 751 749 750 751 750 750 751 750 751 752 753
666 671 668 669 675 683 691 697 701 702 701 700 699 699 701 700 700 701 698 701 709 699 682 685 693 690 688 692 698 701 703 707 709 711 715 713 713 717 715 715 721 728 735 745 746 743 745 754 767 773 774 775 771 766 766 769 771 775 780 782 784 788 792 797 800 799 802 801 793 798 801 781 757 751 751 749 749 748 747 748 750 750 750 750 751 752 752 753
664 667 666 669 674 680 689 694 697 699 697 693 695 697 697 696 696 698 698 699 705 702 686 679 688 694 690 689 694 699 701 705 705 706 709 711 710 710 710 713 719 724 731 738 742 743 746 754 765 772 776 777 776 772 770 770 771 776 778 777 779 784 784 787 791 794 802 803 796 803 806 783 758 752 751 748 748 748 747 748 749 750 750 750 752 752 752 753
662 666 669 671 675 679 685 687 689 694 694 693 696 698 698 697 695 695 698 699 699 697 689 679 678 683 686 688 692 697 702 706 706 704 704 707 712 711 708 710 716 721 724 726 730 739 746 751 757 768 776 778 779 779 777 777 775 773 772 772 773 777 780 785 789 793 801 800 794 800 802 780 758 752 752 751 751 751 749 748 748 750 751 751 752 752 752 752
662 669 672 672 674 677 679 679 680 685 691 694 696 698 699 699 696 693 695 696 692 688 685 679 673 674 679 686 691 695 702 706 707 710 709 708 713 713 708 709 713 715 717 718 721 730 740 745 748 755 761 763 765 766 765 767 770 769 769 771 772 773 777 783 788 795 800 794 788 794 793 776 759 755 755 754 754 754 751 749 749 751 752 753 753 753 752 752
658 667 674 676 677 679 678 677 678 680 686 692 693 694 696 696 694 693 693 693 693 688 682 678 675 675 678 684 693 700 705 705 706 711 713 711 713 713 709 709 711 713 715 719 722 729 738 744 745 744 744 743 744 744 744 752 764 770 770 770 770 771 772 779 788 793 791 788 788 788 783 777 769 761 758 757 757 757 754 751 752 752 752 753 753 753 753 752
655 662 669 672 676 680 682 682 679 679 682 685 687 689 691 692 694 697 696 692 692 689 684 679 677 676 680 686 696 705 708 707 706 709 712 713 715 714 711 711 714 717 718 721 726 731 738 744 742 739 737 734 734 736 740 749 758 762 765 767 769 770 771 778 785 783 780 787 790 781 776 781 775 760 756 758 759 758 754 753 753 752 752 753 753 753 752 752
655 660 663 664 667 671 676 679 678 678 679 681 682 683 685 689 693 696 695 689 685 684 685 684 679 676 678 682 692 704 709 709 711 711 714 718 716 714 716 719 721 722 723 728 732 732 737 741 736 735 735 733 731 733 737 745 750 754 759 763 765 767 770 775 778 775 775 783 783 773 773 777 769 758 755 755 754 755 753 752 751 750 751 752 752 752 751 750
655 659 661 662 663 663 663 667 671 675 677 679 682 681 682 685 687 690 691 686 682 680 681 685 683 679 679 680 686 699 704 705 710 711 712 716 715 714 721 727 727 727 729 734 737 735 737 739 736 735 737 736 736 738 737 740 745 749 754 757 760 764 766 768 771 771 771 775 774 770 772 771 764 759 754 748 748 751 750 748 747 747 750 750 749 749 748 747
652 654 656 660 663 662 663 666 670 673 674 676 679 678 679 680 681 684 686 683 681 679 676 679 681 678 679 681 684 693 694 691 699 705 707 711 713 713 718 722 724 729 732 736 739 738 737 738 736 737 742 743 744 747 744 742 744 748 750 752 756 762 765 769 771 770 771 772 770 771 776 773 763 757 750 745 746 749 748 744 742 744 747 746 746 747 746 745
649 648 649 656 661 662 664 667 669 672 674 675 675 674 676 676 674 677 682 679 676 675 672 673 677 678 681 683 683 687 689 688 693 699 700 702 705 706 710 714 719 728 734 736 738 736 737 738 736 739 748 748 744 747 747 743 747 753 754 753 755 758 761 763 764 764 765 769 770 774 777 769 756 751 750 747 745 745 745 742 740 740 741 743 744 744 744 744
649 648 648 653 659 660 661 664 667 670 669 669 670 670 670 671 670 672 679 680 675 672 670 671 674 677 682 685 683 683 687 689 693 698 699 699 700 702 706 710 713 719 726 732 733 733 734 737 737 740 747 746 741 743 744 746 756 762 757 752 751 751 751 752 753 753 754 758 763 767 763 754 747 749 751 747 742 741 740 739 740 740 740 741 741 740 740 741